Baker, MT

5:45 AM MDT on July 22, 2017 (GMT -0600)
Baker Municipal

Weather History for KBHK - September, 2012

Change the Weather History Date:

Tuesday, September 25, 2012

  Actual Average Record
Temperature  
Mean Temperature 62 °F -  
Max Temperature 79 °F 40 °F 93 °F (2014)
Min Temperature 44 °F 26 °F 28 °F (2000)
Degree Days  
Heating Degree Days 4    
Growing Degree Days 12 (Base 50)    
Moisture  
Dew Point 29 °F    
Average Humidity 35    
Maximum Humidity 55    
Minimum Humidity 15    
Precipitation  
Precipitation 0.00 in - - ()
Sea Level Pressure  
Sea Level Pressure 29.92 in    
Wind  
Wind Speed 5 mph (SE)    
Max Wind Speed 8 mph    
Max Gust Speed -    
Visibility 10 miles    
Events      
Averages and records for this station are not official NWS values.
T = Trace of Precipitation, MM = Missing Value Source: NWS Daily Summary

Daily Weather History Graph

Daily Weather History Graph

Search for Another Location

Airport or City:

Trip Planner

Search our weather history database for the weather conditions in past years. The results will help you decide how hot, cold, wet, or windy it might be!

Date:

Astronomy

Sep. 25, 2012 Rise Set
Actual Time 6:48 AM MDT 6:47 PM MDT
Civil Twilight 6:18 AM MDT 7:17 PM MDT
Nautical Twilight 5:43 AM MDT 7:52 PM MDT
Astronomical Twilight 5:07 AM MDT 8:28 PM MDT
Moon 4:25 PM MDT (9/25) 1:58 AM MDT (9/25)
Length of Visible Light 12h 59m
Length of Day
11h 59m
Waxing Gibbous, 80% of the Moon is Illuminated
Sep 25
Waxing Gibbous
Sep 29
Full
Oct 8
Last Quarter
Oct 15
New
Oct 21
First Quarter

Hourly Weather History & Observations

Time (MDT) Temp. Windchill Dew Point Humidity Pressure Visibility Wind Dir Wind Speed Gust Speed Precip Events Conditions
12:51 AM 50.0 °F - 27.0 °F 41% 29.89 in 10.0 mi ESE 3.5 mph - N/A   Clear
2:51 AM 46.0 °F 42.5 °F 28.0 °F 50% 29.89 in 10.0 mi SE 6.9 mph - N/A   Clear
3:51 AM 46.9 °F - 28.0 °F 48% 29.88 in 10.0 mi SSE 4.6 mph - N/A   Clear
4:51 AM 44.1 °F 42.5 °F 27.0 °F 51% 29.89 in 10.0 mi SSE 3.5 mph - N/A   Clear
5:51 AM 44.1 °F 42.5 °F 28.0 °F 53% 29.89 in 10.0 mi SE 3.5 mph - N/A   Clear
6:51 AM 44.1 °F - 28.9 °F 55% 29.92 in 10.0 mi Calm Calm - N/A   Clear
7:51 AM 46.0 °F 43.9 °F 28.9 °F 51% 29.93 in 10.0 mi SE 4.6 mph - N/A   Clear
8:51 AM 55.9 °F - 30.9 °F 39% 29.94 in 10.0 mi ESE 4.6 mph - N/A   Clear
9:51 AM 62.1 °F - 30.9 °F 31% 29.94 in 10.0 mi ESE 6.9 mph - N/A   Clear
10:51 AM 69.1 °F - 30.9 °F 24% 29.94 in 10.0 mi ESE 6.9 mph - N/A   Clear
11:51 AM 73.0 °F - 30.9 °F 21% 29.92 in 10.0 mi SE 8.1 mph - N/A   Clear
1:51 PM 79.0 °F - 30.0 °F 17% 29.89 in 10.0 mi ESE 8.1 mph - N/A   Clear
2:51 PM 79.0 °F - 28.9 °F 16% 29.89 in 10.0 mi South 5.8 mph - N/A   Clear
4:51 PM 79.0 °F - 27.0 °F 15% 29.89 in 10.0 mi Variable 3.5 mph - N/A   Clear
5:51 PM 75.9 °F - 28.0 °F 17% 29.90 in 9.0 mi ENE 5.8 mph - N/A   Clear
6:51 PM 64.0 °F - 28.0 °F 26% 29.93 in 10.0 mi SE 4.6 mph - N/A   Clear
7:51 PM 59.0 °F - 28.0 °F 31% 29.95 in 10.0 mi East 3.5 mph - N/A   Clear
8:51 PM 54.0 °F - 28.0 °F 37% 29.96 in 10.0 mi SE 6.9 mph - N/A   Clear
9:51 PM 54.0 °F - 28.9 °F 38% 29.96 in 10.0 mi SSE 4.6 mph - N/A   Clear
10:51 PM 50.0 °F - 28.9 °F 44% 29.96 in 10.0 mi East 4.6 mph - N/A   Clear